When you browse on this site, cookies collect data to enhance your experience and personalize the content and advertising you see.
Visit our Privacy Policy to learn more. By continuing to use the site, you agree to this use of cookies and data.
  • în România
  • Lista ţărilor
  • Pe 7 zile
  • Temperatura apei
  • Hartă satelitară
  • Meteo pe hartă
  • Widget-uri
  • user-avatar
    Intrare

    Meteo pe oră la Oslo

    Astăzi, 25 Mai, Sâmbătă

    Timp Temperatura Precipitaţii Vânt Presiune Umiditate
    00:00 +8°C° 0 mm 1 m/s 745 mmHg 91%
    01:00 +8°C° 0 mm 1 m/s 746 mmHg 90%
    02:00 +8°C° 0 mm 1 m/s 746 mmHg 91%
    03:00 +8°C° 0 mm 1 m/s 746 mmHg 91%
    04:00 +7°C° 0 mm 1 m/s 746 mmHg 92%
    05:00 +9°C° 0 mm 1 m/s 746 mmHg 84%
    06:00 +11°C° 0 mm 1 m/s 746 mmHg 76%
    07:00 +14°C° 0 mm 1 m/s 746 mmHg 67%
    08:00 +16°C° 0 mm 1 m/s 746 mmHg 60%
    09:00 +16°C° 0 mm 0 m/s 746 mmHg 54%
    10:00 +18°C° 0 mm 0 m/s 746 mmHg 47%
    11:00 +20°C° 0.1 mm 1 m/s 746 mmHg 50%
    12:00 +19°C° 0.1 mm 1 m/s 745 mmHg 52%
    13:00 +18°C° 0.1 mm 2 m/s 745 mmHg 54%
    14:00 +17°C° 0.3 mm 2 m/s 744 mmHg 57%
    15:00 +17°C° 0.3 mm 3 m/s 744 mmHg 61%
    16:00 +17°C° 0.3 mm 3 m/s 743 mmHg 65%
    17:00 +16°C° 0.2 mm 3 m/s 743 mmHg 67%
    18:00 +16°C° 0.2 mm 3 m/s 742 mmHg 70%
    19:00 +14°C° 0.2 mm 3 m/s 742 mmHg 72%
    20:00 +13°C° 0 mm 2 m/s 741 mmHg 77%
    21:00 +12°C° 0 mm 2 m/s 741 mmHg 82%
    22:00 +9°C° 0 mm 2 m/s 741 mmHg 87%
    23:00 +8°C° 0 mm 2 m/s 740 mmHg 84%

    Mâine, 26 Mai, Duminică

    Timp Temperatura Precipitaţii Vânt Presiune Umiditate
    00:00 +8°C° 0 mm 2 m/s 740 mmHg 81%
    01:00 +7°C° 0 mm 2 m/s 740 mmHg 78%
    02:00 +7°C° 0 mm 2 m/s 739 mmHg 79%
    03:00 +7°C° 0 mm 3 m/s 739 mmHg 79%
    04:00 +7°C° 0 mm 3 m/s 739 mmHg 80%
    05:00 +6°C° 0.3 mm 4 m/s 739 mmHg 80%
    06:00 +6°C° 0.3 mm 4 m/s 739 mmHg 80%
    07:00 +5°C° 0.3 mm 5 m/s 739 mmHg 80%
    08:00 +6°C° 0 mm 5 m/s 739 mmHg 72%
    09:00 +8°C° 0 mm 6 m/s 740 mmHg 64%
    10:00 +9°C° 0 mm 6 m/s 740 mmHg 55%
    11:00 +10°C° 0 mm 5 m/s 740 mmHg 50%
    12:00 +12°C° 0 mm 5 m/s 741 mmHg 46%
    13:00 +14°C° 0 mm 4 m/s 741 mmHg 41%
    14:00 +14°C° 0 mm 4 m/s 741 mmHg 40%
    15:00 +14°C° 0 mm 3 m/s 741 mmHg 39%
    16:00 +16°C° 0 mm 3 m/s 741 mmHg 39%
    17:00 +15°C° 0 mm 2 m/s 741 mmHg 43%
    18:00 +14°C° 0 mm 2 m/s 741 mmHg 46%
    19:00 +14°C° 0 mm 1 m/s 741 mmHg 50%
    20:00 +12°C° 0 mm 1 m/s 741 mmHg 56%
    21:00 +11°C° 0 mm 1 m/s 741 mmHg 61%
    22:00 +10°C° 0 mm 1 m/s 741 mmHg 67%
    23:00 +9°C° 0.1 mm 1 m/s 741 mmHg 69%

    Poimâine, 27 Mai, Luni

    Timp Temperatura Precipitaţii Vânt Presiune Umiditate
    00:00 +9°C° 0.1 mm 1 m/s 741 mmHg 72%
    01:00 +9°C° 0.1 mm 1 m/s 741 mmHg 74%
    02:00 +8°C° 0.2 mm 1 m/s 741 mmHg 77%
    03:00 +8°C° 0.2 mm 1 m/s 741 mmHg 80%
    04:00 +7°C° 0.2 mm 1 m/s 741 mmHg 82%
    05:00 +8°C° 0.1 mm 1 m/s 741 mmHg 80%
    06:00 +7°C° 0.1 mm 2 m/s 741 mmHg 77%
    07:00 +8°C° 0.1 mm 2 m/s 741 mmHg 74%
    08:00 +9°C° 0 mm 2 m/s 741 mmHg 71%
    09:00 +11°C° 0 mm 1 m/s 741 mmHg 67%
    10:00 +12°C° 0 mm 1 m/s 741 mmHg 63%
    11:00 +13°C° 0 mm 1 m/s 741 mmHg 59%
    12:00 +13°C° 0 mm 0 m/s 740 mmHg 55%
    13:00 +14°C° 0 mm 0 m/s 740 mmHg 51%
    14:00 +15°C° 0 mm 0 m/s 740 mmHg 49%
    15:00 +15°C° 0 mm 0 m/s 740 mmHg 47%
    16:00 +16°C° 0 mm 0 m/s 740 mmHg 44%
    17:00 +16°C° 0.1 mm 1 m/s 740 mmHg 51%
    18:00 +15°C° 0.1 mm 1 m/s 740 mmHg 58%
    19:00 +14°C° 0.1 mm 1 m/s 740 mmHg 64%
    20:00 +12°C° 0.2 mm 1 m/s 741 mmHg 72%
    21:00 +10°C° 0.2 mm 1 m/s 741 mmHg 80%
    22:00 +9°C° 0.2 mm 1 m/s 741 mmHg 88%
    23:00 +8°C° 0.2 mm 1 m/s 741 mmHg 90%

    28 Mai, Marţi

    Timp Temperatura Precipitaţii Vânt Presiune Umiditate
    00:00 +8°C° 0.2 mm 1 m/s 742 mmHg 92%
    01:00 +7°C° 0.2 mm 1 m/s 742 mmHg 94%
    02:00 +7°C° 0.2 mm 1 m/s 742 mmHg 94%
    03:00 +7°C° 0.2 mm 1 m/s 742 mmHg 94%
    04:00 +7°C° 0.2 mm 1 m/s 742 mmHg 94%
    05:00 +8°C° 0.1 mm 1 m/s 742 mmHg 91%
    06:00 +8°C° 0.1 mm 1 m/s 742 mmHg 89%
    07:00 +8°C° 0.1 mm 2 m/s 742 mmHg 86%
    08:00 +10°C° 0 mm 1 m/s 742 mmHg 81%
    09:00 +12°C° 0 mm 1 m/s 742 mmHg 76%
    10:00 +13°C° 0 mm 1 m/s 742 mmHg 71%
    11:00 +14°C° 0.8 mm 1 m/s 742 mmHg 70%
    12:00 +15°C° 0.8 mm 1 m/s 742 mmHg 68%
    13:00 +16°C° 0.8 mm 1 m/s 742 mmHg 67%
    14:00 +15°C° 0.9 mm 1 m/s 742 mmHg 69%
    15:00 +15°C° 0.9 mm 2 m/s 742 mmHg 70%
    16:00 +13°C° 0.9 mm 3 m/s 742 mmHg 71%
    17:00 +13°C° 0.5 mm 3 m/s 742 mmHg 72%
    18:00 +12°C° 0.5 mm 3 m/s 742 mmHg 72%
    19:00 +11°C° 0.5 mm 3 m/s 742 mmHg 73%
    20:00 +10°C° 0 mm 2 m/s 742 mmHg 77%
    21:00 +8°C° 0 mm 2 m/s 743 mmHg 81%
    22:00 +7°C° 0 mm 1 m/s 743 mmHg 85%
    23:00 +7°C° 0 mm 1 m/s 744 mmHg 83%

    29 Mai, Miercuri

    Timp Temperatura Precipitaţii Vânt Presiune Umiditate
    00:00 +5°C° 0 mm 2 m/s 744 mmHg 80%
    01:00 +5°C° 0 mm 2 m/s 744 mmHg 78%
    02:00 +4°C° 0 mm 2 m/s 745 mmHg 79%
    03:00 +3°C° 0 mm 3 m/s 745 mmHg 79%
    04:00 +3°C° 0 mm 3 m/s 745 mmHg 80%
    05:00 +4°C° 0 mm 3 m/s 746 mmHg 74%
    06:00 +5°C° 0 mm 3 m/s 747 mmHg 68%
    07:00 +7°C° 0 mm 3 m/s 747 mmHg 62%
    08:00 +8°C° 0 mm 3 m/s 747 mmHg 52%
    09:00 +10°C° 0 mm 2 m/s 748 mmHg 41%
    10:00 +12°C° 0 mm 2 m/s 748 mmHg 31%
    11:00 +12°C° 0 mm 3 m/s 748 mmHg 30%
    12:00 +13°C° 0 mm 3 m/s 748 mmHg 29%
    13:00 +14°C° 0 mm 4 m/s 748 mmHg 27%
    14:00 +14°C° 0 mm 4 m/s 748 mmHg 28%
    15:00 +14°C° 0 mm 4 m/s 748 mmHg 30%
    16:00 +14°C° 0 mm 5 m/s 748 mmHg 31%
    17:00 +13°C° 0 mm 4 m/s 748 mmHg 33%
    18:00 +13°C° 0 mm 4 m/s 749 mmHg 36%
    19:00 +12°C° 0 mm 4 m/s 749 mmHg 39%
    20:00 +11°C° 0 mm 3 m/s 749 mmHg 46%
    21:00 +9°C° 0 mm 3 m/s 750 mmHg 52%
    22:00 +7°C° 0 mm 3 m/s 750 mmHg 59%
    23:00 +7°C° 0 mm 3 m/s 750 mmHg 63%

    30 Mai, Joi

    Timp Temperatura Precipitaţii Vânt Presiune Umiditate
    00:00 +5°C° 0 mm 3 m/s 750 mmHg 67%
    01:00 +4°C° 0 mm 3 m/s 750 mmHg 71%
    02:00 +4°C° 0 mm 3 m/s 750 mmHg 74%
    03:00 +4°C° 0 mm 3 m/s 750 mmHg 77%
    04:00 +4°C° 0 mm 3 m/s 750 mmHg 81%
    05:00 +5°C° 0.2 mm 4 m/s 750 mmHg 80%
    06:00 +6°C° 0.2 mm 5 m/s 749 mmHg 79%
    07:00 +7°C° 0.2 mm 5 m/s 749 mmHg 78%
    08:00 +7°C° 0.7 mm 6 m/s 749 mmHg 83%
    09:00 +7°C° 0.7 mm 6 m/s 748 mmHg 87%
    10:00 +7°C° 0.7 mm 6 m/s 748 mmHg 91%
    11:00 +7°C° 1.5 mm 6 m/s 748 mmHg 92%
    12:00 +7°C° 1.5 mm 6 m/s 747 mmHg 92%
    13:00 +7°C° 1.5 mm 5 m/s 747 mmHg 92%
    14:00 +7°C° 1.3 mm 4 m/s 746 mmHg 94%
    15:00 +8°C° 1.3 mm 3 m/s 745 mmHg 95%
    16:00 +8°C° 1.3 mm 2 m/s 745 mmHg 96%
    17:00 +9°C° 0.6 mm 1 m/s 744 mmHg 96%
    18:00 +9°C° 0.6 mm 1 m/s 744 mmHg 96%
    19:00 +9°C° 0.6 mm 1 m/s 743 mmHg 95%
    20:00 +8°C° 0.1 mm 1 m/s 744 mmHg 96%
    21:00 +8°C° 0.1 mm 1 m/s 744 mmHg 96%
    22:00 +8°C° 0.1 mm 1 m/s 744 mmHg 97%
    23:00 +7°C° 0 mm 1 m/s 744 mmHg 95%
    Arată mai mult